Time,TemperatureF,DewpointF,PressureIn,WindDirection,WindDirectionDegrees,WindSpeedMPH,WindSpeedGustMPH,Humidity,HourlyPrecipIn,Conditions,Clouds,dailyrainin,SoftwareType,DateUTC
2013-01-09 00:02:00,44.9,44.0,29.69,SW,214,0.0,1.0,97,0.02,,,0.00,weatherlink.com 1.10,2013-01-09 08:02:00,
2013-01-09 00:17:00,44.7,44.0,29.69,West,278,2.0,5.0,96,0.02,,,0.01,weatherlink.com 1.10,2013-01-09 08:17:00,
2013-01-09 00:32:00,44.3,43.0,29.69,West,271,1.0,7.0,94,0.02,,,0.02,weatherlink.com 1.10,2013-01-09 08:32:00,
2013-01-09 00:47:00,44.0,42.0,29.70,West,281,1.0,5.0,94,0.02,,,0.02,weatherlink.com 1.10,2013-01-09 08:47:00,
2013-01-09 01:02:00,43.6,42.0,29.70,East,98,0.0,3.0,93,0.02,,,0.02,weatherlink.com 1.10,2013-01-09 09:02:00,
2013-01-09 01:17:00,43.2,42.0,29.70,SSW,193,1.0,1.0,94,0.01,,,0.02,weatherlink.com 1.10,2013-01-09 09:17:00,
2013-01-09 01:32:00,42.9,41.0,29.71,SW,219,0.0,4.0,93,0.00,,,0.02,weatherlink.com 1.10,2013-01-09 09:32:00,
2013-01-09 01:47:00,42.7,41.0,29.72,WNW,288,0.0,1.0,93,0.00,,,0.02,weatherlink.com 1.10,2013-01-09 09:47:00,
2013-01-09 02:02:00,42.5,41.0,29.71,SE,144,0.0,2.0,94,0.00,,,0.02,weatherlink.com 1.10,2013-01-09 10:02:00,
2013-01-09 02:17:00,42.4,41.0,29.71,ESE,113,0.0,3.0,93,0.00,,,0.02,weatherlink.com 1.10,2013-01-09 10:17:00,
2013-01-09 02:33:00,42.2,41.0,29.72,WNW,301,0.0,1.0,94,0.00,,,0.02,weatherlink.com 1.10,2013-01-09 10:33:00,
2013-01-09 02:48:00,42.3,41.0,29.72,WNW,297,0.0,3.0,93,0.00,,,0.02,weatherlink.com 1.10,2013-01-09 10:48:00,
2013-01-09 03:03:00,41.8,41.0,29.72,NNW,330,0.0,1.0,95,0.00,,,0.02,weatherlink.com 1.10,2013-01-09 11:03:00,
2013-01-09 03:18:00,41.4,40.0,29.72,NW,326,0.0,1.0,95,0.00,,,0.02,weatherlink.com 1.10,2013-01-09 11:18:00,
2013-01-09 03:33:00,41.0,40.0,29.71,NW,326,0.0,0.0,96,0.00,,,0.02,weatherlink.com 1.10,2013-01-09 11:33:00,
2013-01-09 03:48:00,40.8,40.0,29.71,North,358,0.0,1.0,96,0.00,,,0.02,weatherlink.com 1.10,2013-01-09 11:48:00,
2013-01-09 04:03:00,40.6,40.0,29.71,North,352,0.0,1.0,96,0.00,,,0.02,weatherlink.com 1.10,2013-01-09 12:03:00,
2013-01-09 04:18:00,40.5,40.0,29.70,NNE,25,0.0,0.0,97,0.00,,,0.02,weatherlink.com 1.10,2013-01-09 12:18:00,
2013-01-09 04:33:00,40.4,40.0,29.70,NW,325,0.0,1.0,97,0.00,,,0.02,weatherlink.com 1.10,2013-01-09 12:33:00,
2013-01-09 04:48:00,40.4,40.0,29.70,NE,43,0.0,1.0,97,0.00,,,0.02,weatherlink.com 1.10,2013-01-09 12:48:00,
2013-01-09 05:03:00,40.3,40.0,29.70,NE,40,0.0,0.0,97,0.00,,,0.02,weatherlink.com 1.10,2013-01-09 13:03:00,
2013-01-09 05:18:00,40.2,39.0,29.69,NNE,25,0.0,1.0,97,0.00,,,0.02,weatherlink.com 1.10,2013-01-09 13:18:00,
2013-01-09 05:33:00,40.1,39.0,29.70,NNE,24,0.0,0.0,97,0.00,,,0.02,weatherlink.com 1.10,2013-01-09 13:33:00,
2013-01-09 05:48:00,40.1,39.0,29.69,NNE,24,0.0,0.0,97,0.00,,,0.02,weatherlink.com 1.10,2013-01-09 13:48:00,
2013-01-09 06:03:00,40.1,39.0,29.70,NNE,25,0.0,0.0,97,0.00,,,0.02,weatherlink.com 1.10,2013-01-09 14:03:00,
2013-01-09 06:18:00,40.2,39.0,29.70,NNE,25,0.0,0.0,97,0.01,,,0.02,weatherlink.com 1.10,2013-01-09 14:18:00,
2013-01-09 06:33:00,40.2,39.0,29.70,NNE,25,0.0,1.0,97,0.01,,,0.02,weatherlink.com 1.10,2013-01-09 14:33:00,
2013-01-09 06:48:00,40.1,39.0,29.70,NNW,335,0.0,0.0,97,0.01,,,0.02,weatherlink.com 1.10,2013-01-09 14:48:00,
2013-01-09 07:03:00,40.0,39.0,29.70,NNW,337,0.0,0.0,97,0.01,,,0.02,weatherlink.com 1.10,2013-01-09 15:03:00,
2013-01-09 07:18:00,40.0,39.0,29.69,NE,43,0.0,1.0,97,0.01,,,0.03,weatherlink.com 1.10,2013-01-09 15:18:00,
2013-01-09 07:33:00,40.0,39.0,29.69,NE,50,0.0,0.0,97,0.01,,,0.03,weatherlink.com 1.10,2013-01-09 15:33:00,
2013-01-09 07:48:00,39.8,39.0,29.69,NE,49,0.0,1.0,97,0.01,,,0.03,weatherlink.com 1.10,2013-01-09 15:48:00,
2013-01-09 08:03:00,39.5,39.0,29.70,ENE,57,0.0,1.0,97,0.01,,,0.03,weatherlink.com 1.10,2013-01-09 16:03:00,
2013-01-09 08:18:00,39.2,39.0,29.71,ENE,64,0.0,0.0,97,0.00,,,0.03,weatherlink.com 1.10,2013-01-09 16:18:00,
2013-01-09 08:33:00,39.1,38.0,29.71,ENE,76,0.0,1.0,97,0.00,,,0.03,weatherlink.com 1.10,2013-01-09 16:33:00,
2013-01-09 08:48:00,39.0,38.0,29.72,ENE,76,0.0,0.0,97,0.00,,,0.03,weatherlink.com 1.10,2013-01-09 16:48:00,
2013-01-09 09:03:00,39.0,38.0,29.72,ENE,75,0.0,1.0,97,0.00,,,0.03,weatherlink.com 1.10,2013-01-09 17:03:00,
2013-01-09 09:18:00,39.2,39.0,29.73,East,99,0.0,1.0,97,0.00,,,0.03,weatherlink.com 1.10,2013-01-09 17:18:00,
2013-01-09 09:33:00,39.4,39.0,29.73,NE,49,0.0,0.0,97,0.00,,,0.03,weatherlink.com 1.10,2013-01-09 17:33:00,
2013-01-09 09:48:00,39.9,39.0,29.73,North,11,0.0,1.0,97,0.00,,,0.03,weatherlink.com 1.10,2013-01-09 17:48:00,
2013-01-09 10:03:00,40.2,39.0,29.74,NNE,25,0.0,1.0,97,0.00,,,0.03,weatherlink.com 1.10,2013-01-09 18:03:00,
2013-01-09 10:18:00,40.5,40.0,29.74,ENE,74,0.0,1.0,96,0.00,,,0.03,weatherlink.com 1.10,2013-01-09 18:18:00,
2013-01-09 10:33:00,40.9,40.0,29.74,ENE,71,0.0,1.0,96,0.00,,,0.03,weatherlink.com 1.10,2013-01-09 18:33:00,
2013-01-09 10:48:00,41.4,40.0,29.74,NE,49,0.0,1.0,95,0.00,,,0.03,weatherlink.com 1.10,2013-01-09 18:48:00,
2013-01-09 11:03:00,41.5,40.0,29.74,East,87,0.0,1.0,94,0.00,,,0.03,weatherlink.com 1.10,2013-01-09 19:03:00,
2013-01-09 11:18:00,41.6,40.0,29.75,ESE,105,0.0,1.0,94,0.00,,,0.03,weatherlink.com 1.10,2013-01-09 19:18:00,
2013-01-09 11:33:00,41.9,40.0,29.75,East,79,0.0,1.0,94,0.00,,,0.03,weatherlink.com 1.10,2013-01-09 19:33:00,
2013-01-09 11:48:00,42.0,40.0,29.75,NE,46,0.0,2.0,93,0.00,,,0.03,weatherlink.com 1.10,2013-01-09 19:48:00,
2013-01-09 12:03:00,42.4,41.0,29.74,ESE,122,0.0,2.0,93,0.00,,,0.03,weatherlink.com 1.10,2013-01-09 20:03:00,
2013-01-09 12:18:00,42.5,40.0,29.74,SE,128,0.0,2.0,92,0.00,,,0.03,weatherlink.com 1.10,2013-01-09 20:18:00,
2013-01-09 12:33:00,42.4,40.0,29.74,SW,218,1.0,3.0,92,0.00,,,0.03,weatherlink.com 1.10,2013-01-09 20:33:00,
2013-01-09 12:48:00,42.7,40.0,29.74,East,97,0.0,4.0,91,0.00,,,0.03,weatherlink.com 1.10,2013-01-09 20:48:00,
2013-01-09 13:03:00,43.5,40.0,29.74,SSW,205,1.0,2.0,87,0.00,,,0.03,weatherlink.com 1.10,2013-01-09 21:03:00,
2013-01-09 13:18:00,43.4,40.0,29.75,ESE,123,0.0,4.0,87,0.00,,,0.03,weatherlink.com 1.10,2013-01-09 21:18:00,
2013-01-09 13:33:00,43.2,40.0,29.75,SSE,163,0.0,2.0,87,0.00,,,0.03,weatherlink.com 1.10,2013-01-09 21:33:00,
2013-01-09 13:48:00,43.0,39.0,29.76,SE,145,1.0,3.0,85,0.00,,,0.03,weatherlink.com 1.10,2013-01-09 21:48:00,
2013-01-09 14:03:00,42.8,38.0,29.76,SSW,207,0.0,3.0,84,0.00,,,0.03,weatherlink.com 1.10,2013-01-09 22:03:00,
2013-01-09 14:18:00,42.7,39.0,29.77,WSW,250,0.0,2.0,85,0.00,,,0.03,weatherlink.com 1.10,2013-01-09 22:18:00,
2013-01-09 14:35:00,42.3,38.0,29.77,South,188,0.0,3.0,86,0.00,,,0.03,weatherlink.com 1.10,2013-01-09 22:35:00,
2013-01-09 14:49:00,41.9,38.0,29.78,WNW,288,0.0,4.0,87,0.00,,,0.03,weatherlink.com 1.10,2013-01-09 22:49:00,
2013-01-09 15:04:00,41.5,38.0,29.79,SSE,155,0.0,2.0,88,0.00,,,0.03,weatherlink.com 1.10,2013-01-09 23:04:00,
2013-01-09 15:19:00,41.4,38.0,29.79,SSE,148,0.0,1.0,88,0.00,,,0.03,weatherlink.com 1.10,2013-01-09 23:19:00,
2013-01-09 15:34:00,41.4,38.0,29.80,WNW,295,0.0,1.0,89,0.00,,,0.03,weatherlink.com 1.10,2013-01-09 23:34:00,
2013-01-09 15:49:00,41.2,38.0,29.81,ESE,114,0.0,1.0,89,0.00,,,0.03,weatherlink.com 1.10,2013-01-09 23:49:00,
2013-01-09 16:04:00,41.0,39.0,29.81,ESE,113,0.0,1.0,91,0.00,,,0.03,weatherlink.com 1.10,2013-01-10 00:04:00,
2013-01-09 16:19:00,40.7,39.0,29.81,NW,324,0.0,0.0,92,0.00,,,0.03,weatherlink.com 1.10,2013-01-10 00:19:00,
2013-01-09 16:34:00,40.2,39.0,29.81,NW,326,0.0,0.0,94,0.00,,,0.03,weatherlink.com 1.10,2013-01-10 00:34:00,
2013-01-09 16:49:00,39.7,38.0,29.82,NW,325,0.0,0.0,94,0.00,,,0.03,weatherlink.com 1.10,2013-01-10 00:49:00,
2013-01-09 17:04:00,39.1,38.0,29.82,NW,324,0.0,0.0,95,0.00,,,0.03,weatherlink.com 1.10,2013-01-10 01:04:00,
2013-01-09 17:19:00,38.4,37.0,29.82,NW,325,0.0,0.0,95,0.00,,,0.03,weatherlink.com 1.10,2013-01-10 01:19:00,
2013-01-09 17:34:00,37.7,36.0,29.82,NW,325,0.0,0.0,95,0.00,,,0.03,weatherlink.com 1.10,2013-01-10 01:34:00,
2013-01-09 17:49:00,37.4,36.0,29.83,NW,324,0.0,0.0,96,0.00,,,0.03,weatherlink.com 1.10,2013-01-10 01:49:00,
2013-01-09 18:04:00,37.3,36.0,29.84,NW,324,0.0,0.0,96,0.00,,,0.03,weatherlink.com 1.10,2013-01-10 02:04:00,
2013-01-09 18:19:00,37.4,36.0,29.84,NW,325,0.0,0.0,96,0.00,,,0.03,weatherlink.com 1.10,2013-01-10 02:19:00,
2013-01-09 18:34:00,37.7,37.0,29.85,NW,325,0.0,0.0,97,0.00,,,0.03,weatherlink.com 1.10,2013-01-10 02:34:00,
2013-01-09 18:49:00,37.8,37.0,29.85,NW,325,0.0,0.0,96,0.00,,,0.03,weatherlink.com 1.10,2013-01-10 02:49:00,
2013-01-09 19:04:00,37.7,37.0,29.86,ENE,75,0.0,0.0,96,0.00,,,0.03,weatherlink.com 1.10,2013-01-10 03:04:00,
2013-01-09 19:19:00,37.5,37.0,29.86,ENE,75,0.0,0.0,96,0.00,,,0.03,weatherlink.com 1.10,2013-01-10 03:19:00,
2013-01-09 19:34:00,37.2,36.0,29.87,ENE,75,0.0,0.0,96,0.00,,,0.03,weatherlink.com 1.10,2013-01-10 03:34:00,
2013-01-09 19:49:00,37.2,36.0,29.87,ENE,75,0.0,0.0,96,0.00,,,0.03,weatherlink.com 1.10,2013-01-10 03:49:00,
2013-01-09 20:04:00,36.9,36.0,29.88,ENE,75,0.0,0.0,96,0.00,,,0.03,weatherlink.com 1.10,2013-01-10 04:04:00,
2013-01-09 20:20:00,36.3,35.0,29.89,ENE,75,0.0,0.0,96,0.00,,,0.03,weatherlink.com 1.10,2013-01-10 04:20:00,
2013-01-09 20:34:00,35.6,35.0,29.89,NNW,346,0.0,0.0,96,0.00,,,0.03,weatherlink.com 1.10,2013-01-10 04:34:00,
2013-01-09 20:49:00,35.4,35.0,29.89,NNE,22,0.0,0.0,97,0.00,,,0.03,weatherlink.com 1.10,2013-01-10 04:49:00,
2013-01-09 21:04:00,35.1,34.0,29.90,ENE,70,1.0,1.0,97,0.00,,,0.03,weatherlink.com 1.10,2013-01-10 05:04:00,
2013-01-09 21:19:00,35.2,35.0,29.91,ENE,75,0.0,1.0,97,0.00,,,0.03,weatherlink.com 1.10,2013-01-10 05:19:00,
2013-01-09 21:51:00,35.8,35.0,29.92,ENE,75,0.0,0.0,97,0.00,,,0.03,weatherlink.com 1.10,2013-01-10 05:51:00,
2013-01-09 22:05:00,36.0,35.0,29.93,East,101,0.0,0.0,97,0.00,,,0.03,weatherlink.com 1.10,2013-01-10 06:05:00,
2013-01-09 22:20:00,36.1,35.0,29.93,NE,47,0.0,0.0,97,0.00,,,0.03,weatherlink.com 1.10,2013-01-10 06:20:00,
2013-01-09 22:35:00,36.3,36.0,29.94,NE,47,0.0,0.0,97,0.00,,,0.03,weatherlink.com 1.10,2013-01-10 06:35:00,
2013-01-09 22:50:00,36.3,36.0,29.94,NNE,26,0.0,1.0,97,0.00,,,0.03,weatherlink.com 1.10,2013-01-10 06:50:00,
2013-01-09 23:05:00,36.3,35.0,29.95,NE,41,0.0,1.0,96,0.00,,,0.03,weatherlink.com 1.10,2013-01-10 07:05:00,
2013-01-09 23:20:00,36.3,35.0,29.95,NE,47,0.0,1.0,96,0.00,,,0.03,weatherlink.com 1.10,2013-01-10 07:20:00,
2013-01-09 23:35:00,36.3,35.0,29.95,East,94,0.0,0.0,95,0.00,,,0.03,weatherlink.com 1.10,2013-01-10 07:35:00,
2013-01-09 23:50:00,36.4,35.0,29.95,East,93,0.0,1.0,95,0.00,,,0.03,weatherlink.com 1.10,2013-01-10 07:50:00,